Location: Newark
(45.5000°N, 11.4167°E)
Time: 06:30:40
(UTC+00:00)

Altair - Pass Details

Date: 27 August 2019
Orbit: 1501 x 1683 km, 47.2° (Epoch: 21 September)

Event Time Altitude Azimuth Distance (km) Brightness Sun altitude
Exits shadow 01:18:44 49° 203° (SSW) 2,000 7.6 -27.8°
Maximum altitude 01:21:21 64° 149° (SSE) 1,754 7.6 -27.6°
Drops below altitude 10° 01:30:46 10° 71° (ENE) 3,763 10.2 -26.6°
Sets 01:33:49 0° 69° (ENE) 4,725 11.0 -26.3°
